Location: Dorbozy
(50.3456°N, 22.9619°E)
Time: 06:59:55
(UTC+00:00)

Daily predictions for brighter satellites

Satellite Brightness Start Highest point End
(mag) Time Altitude Azimuth Time Altitude Azimuth Time Altitude Azimuth
Cosmos 2322 Rocket 4.3 18:32:31 10° N 18:36:07 17° NNE 18:39:42 10° ENE
Spot 2 Rocket 4.3 18:32:11 10° SE 18:36:47 35° ENE 18:41:25 10° N
Cosmos 1500 Rocket 3.6 18:33:49 10° S 18:38:07 89° W 18:42:30 10° N
SL-08 R/B 4.5 18:32:33 10° S 18:38:44 72° E 18:44:52 10° NNE
Ariane Rocket 4.1 18:34:03 10° S 18:38:54 45° W 18:43:47 10° NNW
USA 234 3.5 18:32:36 10° ESE 18:39:06 74° NNE 18:45:39 10° WNW
CZ-2C R/B 2.6 18:37:01 10° NNE 18:42:14 89° W 18:47:27 10° SSW
Resurs 1-3 3.7 18:38:41 10° SSE 18:43:04 82° WSW 18:47:30 10° NNW
Cosmos 407 Rocket 4.2 18:40:23 10° SSE 18:45:10 35° ESE 18:49:57 10° NE
Meteor 1-4 Rocket 3.7 18:42:12 10° N 18:45:14 27° ENE 18:48:13 10° SE
Terra 3.7 18:43:18 10° E 18:46:19 17° NE 18:49:20 10° NNE
Meteor 1-27 Rocket 4.0 18:41:50 10° N 18:47:40 60° ENE 18:53:32 10° SSE
Meteor 1-10 Rocket 4.3 18:42:31 10° NNW 18:48:12 89° ENE 18:53:57 10° S
USA 186 4.1 18:47:39 10° WSW 18:48:46 13° W 18:49:54 10° WNW
Cosmos 1666 Rocket 4.4 18:45:46 10° SSE 18:49:35 32° E 18:53:26 10° NNE
Cosmos 2360 Rocket 4.4 18:47:07 10° N 18:50:02 14° NNE 18:52:57 10° ENE
MetOp-B 4.3 18:45:17 10° SSE 18:50:32 59° ENE 18:55:49 10° N
SPOT 5 4.0 18:56:40 10° ESE 19:00:04 24° ENE 19:03:36 10° N
Cosmos 1980 Rocket 2.6 18:54:40 10° NNW 19:00:15 52° NE 19:05:19 12° SE
Cosmos 1805 Rocket 3.5 18:56:48 10° S 19:01:14 80° E 19:05:42 10° NNE
ERBS 2.9 19:00:20 10° WSW 19:03:38 58° NNW 19:06:55 10° NE
SPOT 1/Viking Rocket 4.0 18:59:15 10° SE 19:04:09 49° ENE 19:09:11 10° N
ATLAS 5 CENTAUR R/B 3.2 19:03:31 10° NW 19:08:57 47° SW 19:15:12 10° SSE
Cosmos 1140 Rocket 3.8 19:06:01 10° S 19:10:57 44° ESE 19:15:56 10° NE
SL-4 R/B 2.7 19:08:15 10° SSW 19:11:36 27° SE 19:14:45 10° E
Genesis I 3.5 19:09:02 10° NW 19:12:52 55° NE 19:15:51 16° ESE
Cosmos 405 Rocket 4.4 19:14:14 14° ESE 19:15:24 16° E 19:17:44 10° NE
Cosmos 1697 Rocket 2.8 19:10:27 10° NNW 19:16:05 77° WSW 19:21:20 12° SSE
Cosmos 1833 Rocket 2.7 19:12:39 10° SSW 19:18:12 66° ESE 19:23:47 10° NNE
CENTAUR R/B 3.9 19:17:41 14° SE 19:19:34 16° ESE 19:23:24 10° ENE
Cosmos 389 Rocket 3.8 19:16:48 10° NNW 19:20:00 37° W 19:23:12 10° SSW
Cosmos 1812 3.7 19:18:09 10° NNW 19:21:52 47° W 19:25:32 10° SSW
Cosmos 1633 Rocket 3.2 19:18:30 10° S 19:22:50 56° E 19:27:11 10° NNE
Cosmos 1867 4.2 19:20:41 10° S 19:25:33 35° ESE 19:30:27 10° NE
Okean 1-7 4.4 19:25:53 10° NNE 19:29:27 24° ENE 19:31:38 17° ESE
Cosmos 1707 Rocket 3.9 19:27:03 10° NNW 19:31:21 63° W 19:35:37 10° S
Resurs 01 Rocket 2.8 19:28:51 10° SSW 19:33:00 40° W 19:37:12 10° NNW
Landsat 7 3.9 19:30:06 13° SSE 19:34:22 83° WSW 19:39:10 10° NNW
Cosmos 676 Rocket 4.3 19:34:26 10° S 19:39:32 49° ESE 19:44:42 10° NNE
Cosmos 1441 Rocket 4.3 19:35:54 10° SSW 19:39:33 44° WNW 19:43:10 10° N
FALCON 9 DEB 3.9 19:36:37 10° SSW 19:39:44 31° SE 19:41:53 16° E
Meteor 1-25 Rocket 4.5 19:35:38 15° SSE 19:40:05 49° E 19:45:28 10° NNE
Cosmos 1934 Rocket 4.0 19:33:45 10° S 19:40:07 81° E 19:46:31 10° NNE
Cosmos 192 4.3 19:35:44 10° NNW 19:40:41 79° ENE 19:43:58 21° SSE
Aureole 1 Rocket 4.4 19:36:19 10° S 19:43:03 66° ESE 19:51:15 10° NNE
deb Kosmos-1763 4.1 19:40:15 14° S 19:43:13 54° ESE 19:46:48 10° NNE
Cosmos 614 Rocket 4.4 19:38:31 10° SW 19:43:38 64° WNW 19:48:50 10° NNE
IGS 5A 3.8 19:41:07 14° S 19:44:34 62° W 19:48:42 10° NNW
NOSS 3-2 (A) 3.8 19:39:26 10° S 19:44:39 38° ESE 19:50:31 10° NE
Cosmos 1470 Rocket 3.7 19:42:24 18° SSE 19:45:30 55° E 19:49:48 10° NNE
USA 267 3.2 19:38:56 10° ENE 19:45:31 80° SSE 19:52:05 10° SW
GP-B 3.1 19:45:03 10° N 19:49:31 84° W 19:53:14 15° S
NOSS 3-2 (C) 4.3 19:48:31 21° SE 19:50:44 27° ESE 19:55:56 10° ENE
SWAS 4.5 19:46:46 10° SSW 19:51:06 86° NW 19:55:27 10° NNE
Cosmos 921 Rocket 2.9 19:51:41 10° NNW 19:55:56 78° ENE 19:58:03 28° SSE
COSMOS 2406 4.1 19:50:44 10° SW 19:56:21 54° NW 20:01:59 10° NNE
Cosmos 1862 Rocket 3.8 19:53:27 10° NNW 19:57:55 68° W 20:01:01 19° S
SL-16 R/B 2.8 19:53:30 10° NNW 19:59:00 47° NE 20:02:27 22° ESE
ERS-1 Rocket 2.9 19:56:08 22° SSE 19:59:30 88° WSW 20:04:34 10° NNW
Cosmos 468 Rocket 4.2 19:57:26 10° NNW 20:02:45 64° ENE 20:05:37 27° SE
Lacrosse 5 2.1 19:57:55 10° WNW 20:03:00 68° NNE 20:06:22 21° ESE
SAR-Lupe-2 3.5 20:02:34 10° NNE 20:06:09 67° ESE 20:07:37 33° S
Cosmos 2219 Rocket 4.4 20:05:44 10° N 20:09:28 17° NNE 20:13:12 10° ENE
BREEZE-M DEB (TANK) 2.1 20:08:09 10° W 20:09:55 45° WSW 20:09:55 45° WSW
Cosmos 2082 Rocket 2.2 20:05:35 10° SSW 20:11:17 86° WNW 20:17:01 10° NNE
NOSS 2 (A) 4.1 20:09:43 10° NW 20:12:18 68° WSW 20:12:18 68° WSW
Cosmos 1954 Rocket 4.0 20:07:33 10° SSW 20:12:53 86° ESE 20:18:15 10° NNE
Cosmos 2278 4.4 20:07:35 10° NW 20:13:04 48° WSW 20:16:44 20° S
Cosmos 2322 Rocket 2.6 20:15:51 10° NNW 20:21:29 56° NE 20:24:25 28° ESE
USA 234 3.7 20:18:45 25° SSE 20:22:22 49° SW 20:28:42 10° WNW
CARTOSAT-1 4.1 20:20:05 24° SSW 20:22:27 52° W 20:26:42 10° NNW
Cosmos 1184 Rocket 3.9 20:21:01 17° SW 20:23:15 42° WNW 20:26:26 10° N
Terra 1.8 20:21:08 31° S 20:23:28 83° WSW 20:28:16 10° NNW
Cosmos 2100 Rocket 4.3 20:20:53 29° SSE 20:23:45 49° E 20:29:37 10° NNE
Cosmos 1933 Rocket 3.6 20:24:16 26° SSW 20:26:43 83° W 20:31:11 10° N
Cosmos 1605 Rocket 4.1 20:21:08 12° SSW 20:26:49 73° WNW 20:32:56 10° N
Meteor 1-20 Rocket 4.5 20:23:25 13° SSW 20:28:43 73° WNW 20:34:36 10° N
Cosmos 1238 Rocket 2.8 20:28:02 33° SW 20:29:02 49° WNW 20:31:55 10° N
Okean 1 3.6 20:25:53 10° NNW 20:29:54 63° W 20:31:27 34° SSW
Cosmos 1602 3.8 20:31:37 33° SSW 20:33:18 74° WNW 20:37:15 10° N
ATLAS 3B R/B 3.8 20:34:00 22° ESE 20:34:04 22° ESE 20:38:55 10° ENE
Cosmos 1437 Rocket 2.6 20:30:42 10° NNW 20:34:32 80° W 20:35:27 50° S
Cosmos 2360 Rocket 3.0 20:30:14 10° NNW 20:35:39 42° NE 20:38:35 24° ESE
Cosmos 1869 Rocket 3.8 20:35:53 43° SE 20:36:52 53° E 20:41:14 10° NNE
Cosmos 1242 Rocket 4.5 20:35:08 10° NNE 20:37:43 18° ENE 20:38:07 18° ENE
SPOT 5 3.4 20:35:54 25° SSW 20:37:58 43° W 20:42:08 10° NNW
Cosmos 2173 Rocket 4.1 20:36:35 32° SSE 20:39:23 59° E 20:45:24 10° NNE
Meteor 1-19 Rocket 4.3 20:34:07 10° NNW 20:39:30 68° W 20:42:13 30° S
USA 238 DEB 3.6 20:33:44 10° SSW 20:40:22 78° SE 20:47:19 10° NE
USA 238 3.5 20:33:51 10° SSW 20:40:28 77° SE 20:47:25 10° NE
Geosat 4.1 20:40:38 36° SE 20:42:40 72° NE 20:47:41 10° NNW
Iridium 4 Rocket 3.2 20:41:58 46° SE 20:42:56 58° E 20:47:06 10° N
JB-3 4.2 20:39:55 10° NNE 20:43:55 77° ESE 20:44:51 51° S
Cosmos 1980 Rocket 3.5 20:39:03 10° NW 20:44:01 32° WSW 20:47:05 19° SSW
Cosmos 2242 Rocket 4.4 20:41:18 10° NNW 20:45:33 45° W 20:47:29 27° SSW
Cosmos 1703 Rocket 3.9 20:41:16 10° NNW 20:45:35 60° W 20:47:06 37° SSW
MTI 4.2 20:43:19 10° NNE 20:45:54 49° ENE 20:45:54 49° ENE
Cosmos 1763 Rocket 3.7 20:43:49 10° NNW 20:49:07 67° WSW 20:51:08 37° S
Meteor 1-14 Rocket 4.3 20:46:53 25° SSW 20:50:27 82° WNW 20:56:27 10° N
Cosmos 1500 3.0 20:50:18 65° ESE 20:50:30 67° E 20:54:14 10° NNE
SL-4 R/B 1.5 20:47:06 10° WSW 20:50:54 84° SSE 20:51:35 57° E
Cosmos 405 Rocket 3.6 20:49:22 26° SW 20:51:02 44° WNW 20:54:38 10° N
BREEZE-M DEB (TANK) 3.3 20:47:58 10° W 20:51:31 82° S 21:03:54 10° E
ALOS 2 4.0 20:50:20 24° E 20:51:31 28° ENE 20:55:14 10° N
MOS 1-B Rocket 4.0 20:48:52 10° NNE 20:54:29 54° E 20:56:13 39° SSE
Cosmos 2333 Rocket 3.6 20:50:37 10° NNW 20:55:42 30° NE 20:59:20 16° E
Cosmos 2016 Rocket 4.2 20:55:14 36° SSE 20:57:36 56° E 21:03:49 10° NNE
Cosmos 2061 Rocket 4.2 20:56:26 37° SSE 20:58:39 56° E 21:04:42 10° NNE
Cosmos 1536 3.8 20:58:57 32° E 20:58:57 32° E 21:02:18 10° NNE
Meteor 1-13 Rocket 4.2 20:53:31 10° N 20:59:05 72° ENE 21:00:56 42° SSE
Meteor 1-5 Rocket 4.3 20:58:36 38° S 21:00:57 70° E 21:06:53 10° NNE
Cosmos 1459 Rocket 3.9 20:58:06 34° S 21:01:05 82° E 21:07:29 10° N
Cosmos 1666 3.4 21:02:40 39° ENE 21:02:40 39° ENE 21:05:50 10° NNE
Okean 1-7 4.0 21:03:07 10° NNW 21:07:11 40° W 21:08:30 31° SW
Lacrosse 4 Rocket 3.8 21:09:06 12° E 21:09:06 12° E 21:09:38 10° ENE
Cosmos 2221 Rocket 3.5 21:03:46 10° N 21:08:15 75° E 21:09:01 59° SE
CENTAUR R/B 2.5 21:04:46 23° SSW 21:08:48 74° SE 21:15:59 10° NE
Cosmos 1867 4.3 21:03:38 10° WSW 21:08:58 54° NW 21:14:21 10° NE
Okean 3 3.4 21:09:04 10° NNW 21:13:22 80° W 21:13:59 63° SSW
Cosmos 1733 Rocket 3.6 21:13:55 42° E 21:14:02 43° E 21:18:12 10° NNE
Cosmos 967 Rocket 4.4 21:07:42 10° NW 21:14:09 90° SSW 21:16:35 41° SE
Thor Agena Rocket 3.6 21:10:32 10° NNE 21:15:32 55° ESE 21:16:25 49° SE
FALCON 9 DEB 4.2 21:13:04 10° WSW 21:15:22 38° W 21:15:22 38° W
Cosmos 1802 Rocket 4.0 21:13:52 37° S 21:16:40 87° E 21:23:04 10° N
Meteor 2-4 Rocket 4.1 21:11:13 10° NNW 21:16:48 56° W 21:18:53 35° SSW
Cosmos 1850 Rocket 4.2 21:14:18 27° SW 21:17:13 70° WNW 21:22:31 10° NNE
SL-27 R/B 2.7 21:19:37 63° NNW 21:19:37 63° NNW 21:22:33 10° NNE
Cosmos 44 3.3 21:17:21 10° NW 21:22:13 72° SW 21:23:09 57° S
ATLAS 5 CENTAUR R/B 2.1 21:19:36 10° NW 21:22:26 72° SW 21:23:25 53° SSE
Cosmos 2346 Rocket 4.4 21:18:44 10° NNW 21:24:49 81° W 21:26:55 43° S
Spot 4 3.8 21:27:26 57° S 21:28:22 78° WSW 21:33:13 10° NNW
USA 267 3.9 21:22:01 10° ENE 21:28:24 57° NNW 21:34:46 10° W
Cosmos 2233 Rocket 4.3 21:29:56 42° SE 21:31:44 55° E 21:37:53 10° NNE
BREEZE-M DEB (TANK) 4.2 21:20:33 10° W 21:33:42 62° S 21:35:19 43° SE
NOSS 3-2 (A) 4.0 21:29:23 10° WSW 21:35:13 58° NW 21:41:58 10° NE
Cosmos 1378 3.7 21:34:29 10° N 21:37:53 48° ENE 21:37:53 48° ENE
Cosmos 1816 Rocket 4.5 21:33:35 10° NNW 21:39:54 78° W 21:41:57 45° S
NOSS 3-2 (C) 3.6 21:35:51 14° SW 21:40:55 74° NW 21:47:44 10° NE
Cosmos 841 Rocket 4.0 21:36:01 10° NW 21:41:00 46° WSW 21:42:00 41° SW
Cosmos 540 Rocket 4.0 21:37:30 10° NW 21:42:26 46° WSW 21:43:22 41° SW
SL-16 R/B 3.1 21:37:53 10° NW 21:43:00 36° WSW 21:44:17 32° SW
Lacrosse 5 2.6 21:41:08 10° WNW 21:45:31 36° SW 21:45:31 36° SW
Cosmos 2322 3.8 21:40:14 10° NNW 21:45:56 71° ENE 21:47:36 46° SE
Cosmos 1833 4.3 21:46:47 52° SE 21:47:33 57° ESE 21:53:06 10° NE
Cosmos 1378 Rocket 3.5 21:47:02 10° N 21:51:30 77° ENE 21:51:46 73° ESE
Tsikada Rocket 4.1 21:46:33 10° NNW 21:52:55 71° W 21:54:55 45° SSW
Cosmos 2219 Rocket 2.5 21:49:01 10° NNW 21:54:40 60° NE 21:56:38 39° ESE
Cosmos 2082 Rocket 4.5 21:51:50 10° W 21:56:14 22° NW 22:00:38 10° NNE
COSMOS 2487 3.7 21:58:46 35° NE 21:58:46 35° NE 22:00:59 10° NNE
Cosmos 2084 Rocket 3.5 21:59:01 65° W 21:59:30 73° NW 22:03:51 10° NE
Cosmos 2237 4.5 21:54:04 10° NW 21:59:35 52° WSW 22:00:34 46° SW
Cosmos 2333 4.2 21:54:30 10° NNW 22:00:21 87° ENE 22:01:49 53° SSE
Terra 4.3 22:00:13 10° WSW 22:01:59 12° W 22:03:46 10° WNW
Cosmos 1975 Rocket 3.9 22:00:31 10° N 22:04:46 39° ENE 22:05:17 37° E
EO 1 Del DPAF 3.6 22:01:18 10° N 22:04:57 55° WNW 22:04:57 55° WNW
Cosmos 2322 Rocket 3.3 22:00:22 10° NW 22:05:15 30° WSW 22:06:13 28° WSW
Meteor 1-11 Rocket 4.3 22:09:09 35° SW 22:11:13 52° WNW 22:16:52 10° N
Cosmos 1486 Rocket 3.9 22:11:53 61° SE 22:12:22 64° ESE 22:17:32 10° NNE
Cosmos 1242 Rocket 3.7 22:09:22 10° NNW 22:12:07 36° WNW 22:12:07 36° WNW
Helios 1A 3.0 22:13:11 67° E 22:13:18 68° ENE 22:17:30 10° N
ERBS 4.0 22:14:19 10° NW 22:17:20 31° NNE 22:18:10 27° NE
Cosmos 1544 3.9 22:20:20 45° NE 22:20:20 45° NE 22:23:11 10° NNE
Cosmos 2360 Rocket 2.8 22:14:23 10° NW 22:19:39 40° WSW 22:20:19 39° SW
COSMOS 2428 2.7 22:15:18 10° NNW 22:21:05 80° ENE 22:22:37 51° SE
ATLAS 3B R/B 2.5 22:21:12 39° SW 22:23:54 88° SE 22:30:37 10° NE
Okean 2 3.4 22:21:06 10° N 22:25:03 75° NE 22:25:03 75° NE
Cosmos 489 Rocket 4.4 22:18:57 10° NNW 22:25:19 80° WSW 22:26:57 52° S
ALOS 2 3.4 22:27:44 39° W 22:27:44 39° W 22:31:52 10° NNW
SL-4 R/B 4.4 22:26:56 10° W 22:27:13 12° W 22:27:13 12° W
Meteor 2-9 Rocket 4.4 22:31:37 50° SE 22:32:37 58° E 22:38:12 10° NNE
Cosmos 2297 Rocket 3.9 22:34:19 18° ESE 22:35:01 18° E 22:38:44 10° ENE
Cosmos 1536 4.4 22:34:39 24° W 22:35:11 25° WNW 22:38:33 10° NNW
Cosmos 1980 4.4 22:29:43 10° NNW 22:35:15 50° NE 22:38:04 27° ESE
Cosmos 1743 3.3 22:38:17 52° WNW 22:38:17 52° WNW 22:41:53 10° N
Cosmos 2333 Rocket 2.2 22:34:42 10° NW 22:40:25 65° WSW 22:41:19 56° SSW
Cosmos 1271 Rocket 3.8 22:37:55 10° NNW 22:40:47 35° WNW 22:40:47 35° WNW
NOSS 0 Rocket 4.0 22:38:30 10° NNW 22:44:47 77° ENE 22:47:14 39° SE
Cosmos 2237 Rocket 2.8 22:39:17 10° NNW 22:44:51 54° NE 22:47:32 29° ESE
Lacrosse 4 Rocket 1.4 22:45:24 78° NW 22:45:24 78° NW 22:49:37 10° NNE
Cosmos 773 Rocket 4.3 22:41:51 10° NNW 22:46:58 60° ENE 22:48:24 43° ESE
Cosmos 1025 Rocket 3.9 22:43:42 10° N 22:47:45 39° ENE 22:48:18 37° E
Cosmos 44 Rocket 3.2 22:52:11 10° NW 22:57:10 74° SW 22:57:31 70° SSW
CENTAUR R/B 3.9 22:53:59 10° W 23:00:05 42° NNW 23:07:15 10° NE
Cosmos 968 Rocket 3.6 22:59:01 51° WSW 23:00:05 64° WNW 23:05:13 10° NNE
Cosmos 1975 3.1 23:02:22 60° WNW 23:02:22 60° WNW 23:06:13 10° N
Resurs 1-4 Rocket 3.8 23:02:32 10° NE 23:06:37 22° E 23:08:21 19° ESE
Cosmos 1536 Rocket 4.1 23:03:07 10° N 23:07:22 49° ENE 23:07:59 45° ESE
Cosmos 1354 Rocket 3.9 23:07:09 61° SSW 23:08:09 89° WNW 23:13:32 10° NNE
Cosmos 1782 Rocket 3.7 23:10:37 57° W 23:10:48 58° WNW 23:15:06 10° N
USA 267 4.1 23:04:37 10° E 23:10:54 52° N 23:17:12 10° WNW
Cosmos 1707 2.8 23:12:32 10° N 23:16:13 77° NNW 23:16:13 77° NNW
Cosmos 1464 Rocket 4.1 23:15:36 46° SW 23:17:30 69° WNW 23:23:43 10° N
Helios 1B rocket 2.3 23:17:38 10° NNE 23:21:46 85° ESE 23:21:48 84° ESE
Cosmos 2344 4.3 23:12:43 10° NW 23:21:58 89° SW 23:34:55 10° SE
CZ-4 R/B 3.9 23:17:04 10° NNE 23:22:04 78° WNW 23:23:00 59° SW
Cosmos 2227 Rocket 3.1 23:22:42 32° SE 23:23:59 36° ESE 23:29:06 10° NE
Cosmos 1674 3.6 23:24:44 10° N 23:28:17 39° ENE 23:28:43 38° E
Cosmos 1607 4.5 23:22:03 10° NW 23:28:27 61° NE 23:34:51 10° ESE
Meteor 1-12 Rocket 4.3 23:28:42 48° S 23:30:29 82° E 23:36:33 10° NNE
Nadezhda 4 Rocket 4.2 23:30:06 10° NNW 23:36:16 58° W 23:38:03 43° SW
Cosmos 1777 Rocket 4.1 23:35:45 51° SSE 23:36:54 67° ESE 23:42:11 10° NNE
Cosmos 2219 Rocket 3.3 23:33:33 10° NW 23:38:16 27° WSW 23:38:19 27° WSW
MOZ.5/SAFIR/RUBIN 5/SL-8 3.8 23:39:37 48° SSE 23:40:55 77° ENE 23:45:41 10° NNW
Meteor 1-29 3.1 23:38:05 10° NNE 23:41:13 70° NNE 23:41:13 70° NNE
Cosmos 1975 Rocket 4.5 23:38:44 10° NNW 23:42:25 26° W 23:42:25 26° W
Cosmos 1437 4.4 23:42:57 10° NNW 23:44:31 26° NW 23:44:31 26° NW
Okean 2 Rocket 3.1 23:45:22 58° WSW 23:45:55 64° WNW 23:50:24 10° N
Cosmos 2034 Rocket 4.2 23:43:53 40° SW 23:46:02 60° WNW 23:52:19 10° N
SL-16 R/B 2.6 23:46:15 28° SSE 23:49:47 78° ENE 23:56:03 10° NNW
ADEOS II 4.0 23:46:21 10° NE 23:50:22 22° E 23:53:31 13° SE
Cosmos 1092 Rocket 4.0 23:44:19 10° NNW 23:50:34 71° W 23:52:45 42° SSW
GEOS 3 Rocket 3.8 23:46:24 10° NE 23:51:48 63° SE 23:53:18 45° S
CZ-2D R/B 2.7 23:47:24 10° NNE 23:52:45 50° E 23:54:55 33° SSE
Cosmos 1300 Rocket 3.7 23:52:28 53° WSW 23:52:56 57° WNW 23:57:12 10° N
Iridium 51 4.3 23:49:55 10° N 23:54:14 71° W 23:54:30 68° WSW
